KRP501 LRTR-LBSF

Flight info

Callsign KRP501
Flight time 0h 45m
Altitude 33000
Route MAVIT DCT DONIV DCT OBAGI DCT NISVA
Aircraft A320/M-SDE3FGHIRWY/LB1

Departure

Time 2026-04-23 08:02
Airport Timișoara Traian Vuia International Airport (LRTR)

Arrival

Time 2026-04-23 08:48
Airport Sofia Airport (LBSF)
Time Latitude Longitude Altitude Speed Heading
2026-04-23 07:42 45.81054 21.32133 342 ft 0 kts 199°
2026-04-23 07:56 45.81066 21.32139 342 ft 4 kts 202°
2026-04-23 07:56 45.81090 21.32156 342 ft 4 kts 219°
2026-04-23 07:56 45.81104 21.32183 353 ft 4 kts 272°
2026-04-23 07:57 45.81104 21.32194 342 ft 0 kts 289°
2026-04-23 07:59 45.81111 21.32163 342 ft 8 kts 289°
2026-04-23 07:59 45.81137 21.32067 342 ft 10 kts 295°
2026-04-23 07:59 45.81168 21.31971 342 ft 11 kts 289°
2026-04-23 08:00 45.81206 21.31815 345 ft 16 kts 289°
2026-04-23 08:00 45.81234 21.31700 345 ft 16 kts 289°
2026-04-23 08:00 45.81284 21.31578 344 ft 13 kts 334°
2026-04-23 08:00 45.81368 21.31605 337 ft 12 kts 19°
2026-04-23 08:01 45.81444 21.31643 341 ft 11 kts 20°
2026-04-23 08:01 45.81501 21.31689 338 ft 8 kts 61°
2026-04-23 08:01 45.81492 21.31761 341 ft 7 kts 110°
2026-04-23 08:01 45.81461 21.31883 340 ft 31 kts 110°
2026-04-23 08:02 45.81300 21.32521 349 ft 102 kts 109°
2026-04-23 08:02 45.80996 21.33741 349 ft 156 kts 109°
2026-04-23 08:02 45.80634 21.35265 822 ft 163 kts 110°
2026-04-23 08:02 45.80247 21.36792 1451 ft 167 kts 111°
2026-04-23 08:03 45.79823 21.38449 1892 ft 185 kts 111°
2026-04-23 08:03 45.79351 21.40287 2219 ft 208 kts 110°
2026-04-23 08:03 45.78829 21.42334 2556 ft 229 kts 110°
2026-04-23 08:03 45.78255 21.44575 2937 ft 252 kts 114°
2026-04-23 08:04 45.77174 21.46614 3437 ft 267 kts 149°
2026-04-23 08:04 45.75420 21.47391 4209 ft 267 kts 185°
2026-04-23 08:04 45.73680 21.46607 5070 ft 265 kts 216°
2026-04-23 08:04 45.72115 21.45183 5952 ft 271 kts 206°
2026-04-23 08:05 45.70236 21.44629 6751 ft 282 kts 184°
2026-04-23 08:05 45.68257 21.44726 7585 ft 287 kts 176°
2026-04-23 08:05 45.66252 21.45006 8409 ft 292 kts 175°
2026-04-23 08:05 45.64216 21.45261 9276 ft 296 kts 176°
2026-04-23 08:06 45.62146 21.45422 10094 ft 300 kts 178°
2026-04-23 08:06 45.60000 21.45492 10485 ft 320 kts 180°
2026-04-23 08:06 45.57699 21.45488 10804 ft 340 kts 181°
2026-04-23 08:06 45.55307 21.45427 11435 ft 347 kts 181°
2026-04-23 08:07 45.52873 21.45340 12143 ft 352 kts 181°
2026-04-23 08:07 45.50407 21.45246 12872 ft 357 kts 181°
2026-04-23 08:07 45.47906 21.45152 13562 ft 362 kts 180°
2026-04-23 08:07 45.45369 21.45064 14198 ft 367 kts 180°
2026-04-23 08:08 45.42803 21.44764 14838 ft 372 kts 189°
2026-04-23 08:08 45.40293 21.43803 15486 ft 376 kts 201°
2026-04-23 08:08 45.37930 21.42172 16100 ft 380 kts 210°
2026-04-23 08:08 45.35633 21.40279 16730 ft 384 kts 210°
2026-04-23 08:09 45.33307 21.38376 17343 ft 387 kts 210°
2026-04-23 08:09 45.30957 21.36467 17973 ft 391 kts 209°
2026-04-23 08:09 45.28582 21.34545 18548 ft 395 kts 209°
2026-04-23 08:09 45.26177 21.32606 19054 ft 399 kts 208°
2026-04-23 08:10 45.23641 21.30975 19551 ft 402 kts 198°
2026-04-23 08:10 45.20932 21.29954 20049 ft 405 kts 189°
2026-04-23 08:10 45.15355 21.28385 21065 ft 413 kts 188°
2026-04-23 08:11 45.12565 21.27597 21561 ft 417 kts 188°
2026-04-23 08:11 45.09668 21.26774 22075 ft 421 kts 188°
2026-04-23 08:11 45.06787 21.25955 22581 ft 425 kts 188°
2026-04-23 08:11 45.03876 21.25130 23073 ft 429 kts 188°
2026-04-23 08:12 45.00937 21.24296 23566 ft 433 kts 188°
2026-04-23 08:12 44.97969 21.23452 23985 ft 436 kts 188°
2026-04-23 08:12 44.95023 21.22614 24407 ft 439 kts 187°
2026-04-23 08:12 44.92030 21.21768 24863 ft 441 kts 187°
2026-04-23 08:13 44.89012 21.20921 25274 ft 443 kts 187°
2026-04-23 08:13 44.85980 21.20072 25664 ft 446 kts 187°
2026-04-23 08:13 44.82929 21.19216 26030 ft 449 kts 187°
2026-04-23 08:13 44.79845 21.18511 26412 ft 447 kts 180°
2026-04-23 08:14 44.76752 21.18466 26770 ft 443 kts 169°
2026-04-23 08:14 44.73727 21.19117 27124 ft 438 kts 160°
2026-04-23 08:14 44.70851 21.20418 27486 ft 432 kts 150°
2026-04-23 08:14 44.68181 21.22299 27855 ft 427 kts 143°
2026-04-23 08:15 44.65596 21.24375 28230 ft 429 kts 143°
2026-04-23 08:15 44.62992 21.26452 28572 ft 432 kts 143°
2026-04-23 08:15 44.60369 21.28532 28912 ft 434 kts 143°
2026-04-23 08:15 44.57730 21.30619 29249 ft 436 kts 143°
2026-04-23 08:16 44.55079 21.32710 29580 ft 438 kts 143°
2026-04-23 08:16 44.52414 21.34811 29922 ft 440 kts 142°
2026-04-23 08:16 44.49748 21.36913 30266 ft 441 kts 142°
2026-04-23 08:16 44.47072 21.39024 30533 ft 442 kts 142°
2026-04-23 08:17 44.44385 21.41144 30828 ft 443 kts 142°
2026-04-23 08:17 44.41697 21.43265 31091 ft 445 kts 142°
2026-04-23 08:17 44.39001 21.45394 31361 ft 446 kts 143°
2026-04-23 08:17 44.36298 21.47522 31640 ft 446 kts 142°
2026-04-23 08:18 44.33597 21.49642 31997 ft 444 kts 142°
2026-04-23 08:18 44.30908 21.51746 32340 ft 443 kts 142°
2026-04-23 08:18 44.28224 21.53842 32652 ft 441 kts 142°
2026-04-23 08:18 44.25548 21.55932 33014 ft 439 kts 143°
2026-04-23 08:19 44.22892 21.58006 33138 ft 435 kts 143°
2026-04-23 08:19 44.20284 21.60036 33152 ft 424 kts 142°
2026-04-23 08:19 44.15173 21.64012 33143 ft 419 kts 142°
2026-04-23 08:20 44.10095 21.67982 33143 ft 418 kts 142°
2026-04-23 08:20 44.05024 21.71936 33143 ft 418 kts 142°
2026-04-23 08:21 43.99951 21.75871 33138 ft 418 kts 143°
2026-04-23 08:21 43.94870 21.79800 33136 ft 418 kts 143°
2026-04-23 08:22 43.89794 21.83726 33135 ft 418 kts 143°
2026-04-23 08:22 43.84702 21.87645 33139 ft 419 kts 143°
2026-04-23 08:23 43.79608 21.91557 33138 ft 419 kts 143°
2026-04-23 08:23 43.74513 21.95475 33124 ft 419 kts 143°
2026-04-23 08:24 43.69419 21.99378 33120 ft 419 kts 143°
2026-04-23 08:24 43.64319 22.03277 33116 ft 419 kts 143°
2026-04-23 08:25 43.59214 22.07162 33091 ft 419 kts 144°
2026-04-23 08:25 43.56697 22.09133 32614 ft 411 kts 139°
2026-04-23 08:25 43.54466 22.11482 32129 ft 397 kts 130°
2026-04-23 08:26 43.52408 22.13991 31652 ft 393 kts 131°
2026-04-23 08:26 43.50361 22.16466 31201 ft 390 kts 131°
2026-04-23 08:26 43.48322 22.18919 30754 ft 386 kts 130°
2026-04-23 08:26 43.46306 22.21335 30317 ft 383 kts 130°
2026-04-23 08:27 43.44309 22.23729 29831 ft 378 kts 130°
2026-04-23 08:27 43.42341 22.26093 29417 ft 373 kts 130°
2026-04-23 08:27 43.40398 22.28432 28994 ft 369 kts 130°
2026-04-23 08:27 43.38483 22.30732 28599 ft 364 kts 130°
2026-04-23 08:28 43.36587 22.33004 28207 ft 359 kts 130°
2026-04-23 08:28 43.34711 22.35256 27814 ft 356 kts 130°
2026-04-23 08:28 43.32860 22.37478 27426 ft 352 kts 131°
2026-04-23 08:28 43.31025 22.39674 27039 ft 347 kts 131°
2026-04-23 08:29 43.29217 22.41835 26643 ft 342 kts 131°
2026-04-23 08:29 43.27432 22.43967 26259 ft 338 kts 130°
2026-04-23 08:29 43.25670 22.46070 25874 ft 334 kts 131°
2026-04-23 08:29 43.23927 22.48147 25480 ft 330 kts 131°
2026-04-23 08:30 43.22196 22.50210 25084 ft 328 kts 131°
2026-04-23 08:30 43.20478 22.52258 24690 ft 327 kts 131°
2026-04-23 08:30 43.18764 22.54299 24278 ft 326 kts 131°
2026-04-23 08:30 43.17057 22.56330 23878 ft 325 kts 131°
2026-04-23 08:31 43.15355 22.58355 23436 ft 324 kts 132°
2026-04-23 08:31 43.13659 22.60367 23017 ft 321 kts 132°
2026-04-23 08:31 43.11979 22.62362 22616 ft 318 kts 132°
2026-04-23 08:31 43.10312 22.64340 22227 ft 316 kts 132°
2026-04-23 08:32 43.08658 22.66300 21844 ft 314 kts 133°
2026-04-23 08:32 43.07034 22.68223 21475 ft 312 kts 133°
2026-04-23 08:32 43.05375 22.70188 21092 ft 311 kts 133°
2026-04-23 08:32 43.03743 22.72121 20710 ft 310 kts 134°
2026-04-23 08:33 43.02113 22.74045 20339 ft 309 kts 134°
2026-04-23 08:33 43.00484 22.75964 19966 ft 308 kts 134°
2026-04-23 08:33 42.98863 22.77874 19595 ft 308 kts 134°
2026-04-23 08:33 42.97266 22.79816 19221 ft 305 kts 129°
2026-04-23 08:34 42.95895 22.81949 18854 ft 302 kts 126°
2026-04-23 08:34 42.94531 22.84134 18493 ft 302 kts 126°
2026-04-23 08:34 42.93146 22.86346 18084 ft 302 kts 127°
2026-04-23 08:34 42.91798 22.88538 17715 ft 301 kts 124°
2026-04-23 08:35 42.90540 22.90803 17341 ft 298 kts 122°
2026-04-23 08:35 42.89338 22.93104 16983 ft 297 kts 121°
2026-04-23 08:35 42.88176 22.95376 16635 ft 296 kts 121°
2026-04-23 08:35 42.86999 22.97676 16229 ft 298 kts 122°
2026-04-23 08:36 42.85807 22.99991 15835 ft 299 kts 122°
2026-04-23 08:36 42.84609 23.02299 15482 ft 298 kts 122°
2026-04-23 08:36 42.83389 23.04636 15132 ft 298 kts 123°
2026-04-23 08:36 42.82180 23.06937 14780 ft 299 kts 123°
2026-04-23 08:37 42.80981 23.09208 14434 ft 300 kts 123°
2026-04-23 08:37 42.79764 23.11512 14085 ft 300 kts 123°
2026-04-23 08:37 42.78543 23.13821 13707 ft 301 kts 123°
2026-04-23 08:37 42.77319 23.16135 13333 ft 300 kts 123°
2026-04-23 08:38 42.76100 23.18439 12978 ft 300 kts 124°
2026-04-23 08:38 42.74882 23.20735 12609 ft 299 kts 123°
2026-04-23 08:38 42.73665 23.23026 12258 ft 298 kts 124°
2026-04-23 08:38 42.72454 23.25312 11887 ft 297 kts 123°
2026-04-23 08:39 42.71246 23.27592 11513 ft 297 kts 124°
2026-04-23 08:39 42.70038 23.29863 11150 ft 296 kts 124°
2026-04-23 08:39 42.68832 23.32130 10776 ft 296 kts 124°
2026-04-23 08:39 42.67624 23.34403 10387 ft 296 kts 124°
2026-04-23 08:40 42.66421 23.36671 10001 ft 296 kts 124°
2026-04-23 08:40 42.65217 23.38938 9595 ft 295 kts 124°
2026-04-23 08:40 42.64023 23.41187 9189 ft 292 kts 124°
2026-04-23 08:40 42.62831 23.43412 8781 ft 291 kts 124°
2026-04-23 08:41 42.61706 23.45681 8356 ft 288 kts 116°
2026-04-23 08:41 42.60994 23.48193 7962 ft 283 kts 101°
2026-04-23 08:41 42.60733 23.50821 7570 ft 281 kts 91°
2026-04-23 08:41 42.60579 23.53464 7148 ft 281 kts 91°
2026-04-23 08:42 42.60474 23.55213 6918 ft 279 kts 92°
2026-04-23 08:42 42.60314 23.57775 6851 ft 266 kts 92°
2026-04-23 08:42 42.60157 23.60223 6742 ft 254 kts 92°
2026-04-23 08:42 42.60267 23.62524 6614 ft 237 kts 66°
2026-04-23 08:43 42.61141 23.64285 6503 ft 220 kts 37°
2026-04-23 08:43 42.62499 23.65158 6099 ft 216 kts
2026-04-23 08:43 42.63969 23.65331 5752 ft 209 kts
2026-04-23 08:43 42.65390 23.65484 5428 ft 201 kts
2026-04-23 08:44 42.66748 23.65324 5181 ft 195 kts 340°
2026-04-23 08:44 42.67849 23.64268 4772 ft 196 kts 309°
2026-04-23 08:44 42.68364 23.62595 4511 ft 193 kts 279°
2026-04-23 08:44 42.68477 23.60811 4259 ft 186 kts 278°
2026-04-23 08:45 42.68581 23.59102 4004 ft 176 kts 278°
2026-04-23 08:45 42.68680 23.57502 3766 ft 164 kts 278°
2026-04-23 08:45 42.68772 23.56009 3514 ft 153 kts 278°
2026-04-23 08:45 42.68857 23.54629 3307 ft 143 kts 276°
2026-04-23 08:46 42.68939 23.53306 3122 ft 138 kts 276°
2026-04-23 08:46 42.69019 23.52009 2934 ft 136 kts 276°
2026-04-23 08:46 42.69097 23.50738 2773 ft 137 kts 277°
2026-04-23 08:46 42.69178 23.49441 2585 ft 138 kts 278°
2026-04-23 08:47 42.69259 23.48138 2402 ft 139 kts 277°
2026-04-23 08:47 42.69339 23.46816 2213 ft 141 kts 278°
2026-04-23 08:47 42.69419 23.45461 2027 ft 142 kts 277°
2026-04-23 08:47 42.69500 23.44136 1834 ft 142 kts 276°
2026-04-23 08:48 42.69581 23.42859 1751 ft 117 kts 274°
2026-04-23 08:48 42.69630 23.42004 1750 ft 57 kts 274°
2026-04-23 08:48 42.69631 23.41742 1750 ft 20 kts 259°
2026-04-23 08:48 42.69583 23.41556 1748 ft 22 kts 246°
2026-04-23 08:49 42.69516 23.41362 1746 ft 19 kts 244°
2026-04-23 08:49 42.69470 23.41230 1745 ft 15 kts 226°
2026-04-23 08:49 42.69381 23.41191 1750 ft 13 kts 192°
2026-04-23 08:49 42.69300 23.41168 1742 ft 12 kts 192°
2026-04-23 08:50 42.69215 23.41142 1750 ft 14 kts 192°
2026-04-23 08:50 42.69129 23.41090 1746 ft 13 kts 238°
2026-04-23 08:50 42.69100 23.40974 1746 ft 14 kts 252°
2026-04-23 08:50 42.69066 23.40889 1749 ft 6 kts 186°
2026-04-23 08:51 42.69027 23.40907 1741 ft 5 kts 161°
2026-04-23 08:51 42.68999 23.40919 1749 ft 3 kts 162°
2026-04-23 08:51 42.68990 23.40923 1749 ft 0 kts 161°